| time (UTC) | temp C | wind direction | speed KPH | gust KPH | rain 1hr cm | rain 24hr cm | rain mn cm | humidity % | barometer mb |
| 20260505093937 | 12 | 165 | 1.6 | 4.8 | 0.00 | 0.00 | 0.00 | 82 | 998.6 |
| 20260505093436 | 12 | 173 | 1.6 | 4.8 | 0.00 | 0.00 | 0.00 | 82 | 998.6 |
| 20260505093207 | 12 | 179 | 1.6 | 4.8 | 0.00 | 0.00 | 0.00 | 81 | 998.6 |
| 20260505092436 | 12 | 0 | 1.6 | 3.2 | 0.00 | 0.00 | 0.00 | 82 | 998.6 |
| 20260505091935 | 12 | 294 | 1.6 | 6.4 | 0.00 | 0.00 | 0.00 | 81 | 998.6 |
| 20260505091434 | 11 | 0 | 1.6 | 6.4 | 0.00 | 0.00 | 0.00 | 82 | 998.6 |
| 20260505090931 | 11 | 148 | 1.6 | 4.8 | 0.00 | 0.00 | 0.00 | 82 | 998.5 |
| 20260505090702 | 11 | 154 | 1.6 | 4.8 | 0.00 | 0.00 | 0.00 | 82 | 998.5 |
| 20260505085930 | 11 | 0 | 1.6 | 6.4 | 0.00 | 0.00 | 0.00 | 82 | 998.5 |
| 20260505085431 | 11 | 148 | 1.6 | 6.4 | 0.00 | 0.00 | 0.00 | 82 | 998.5 |
| 20260505084931 | 11 | 153 | 1.6 | 4.8 | 0.00 | 0.00 | 0.00 | 82 | 998.6 |
| 20260505084703 | 11 | 206 | 1.6 | 4.8 | 0.00 | 0.00 | 0.00 | 82 | 998.7 |
| 20260505084202 | 11 | 90 | 1.6 | 4.8 | 0.00 | 0.00 | 0.00 | 81 | 998.7 |
| 20260505083430 | 11 | 140 | 1.6 | 4.8 | 0.00 | 0.00 | 0.00 | 81 | 998.7 |
| 20260505082931 | 11 | 100 | 1.6 | 4.8 | 0.00 | 0.00 | 0.00 | 81 | 998.7 |
| 20260505082431 | 11 | 0 | 1.6 | 3.2 | 0.00 | 0.00 | 0.00 | 82 | 998.7 |
| 20260505081930 | 11 | 42 | 1.6 | 9.7 | 0.00 | 0.00 | 0.00 | 82 | 998.7 |
| 20260505081431 | 11 | 0 | 1.6 | 9.7 | 0.00 | 0.00 | 0.00 | 82 | 998.6 |
| 20260505080933 | 11 | 0 | 0.0 | 4.8 | 0.00 | 0.00 | 0.00 | 82 | 998.6 |
| 20260505080926 | 11 | 272 | 0.0 | 4.8 | 0.00 | 0.00 | 0.00 | 82 | 998.6 |
| 20260505080156 | 10 | 111 | 0.0 | 4.8 | 0.00 | 0.00 | 0.00 | 82 | 998.5 |
| 20260505075700 | 11 | 0 | 0.0 | 3.2 | 0.00 | 0.00 | 0.00 | 81 | 998.6 |
| 20260505074925 | 11 | 91 | 1.6 | 3.2 | 0.00 | 0.00 | 0.00 | 81 | 998.6 |
| 20260505074700 | 10 | 71 | 1.6 | 3.2 | 0.00 | 0.00 | 0.00 | 81 | 998.7 |
| 20260505073926 | 10 | 57 | 0.0 | 3.2 | 0.00 | 0.00 | 0.00 | 81 | 998.7 |
| 20260505073427 | 11 | 50 | 0.0 | 3.2 | 0.00 | 0.00 | 0.00 | 80 | 998.7 |
| 20260505072925 | 11 | 0 | 0.0 | 1.6 | 0.00 | 0.00 | 0.00 | 80 | 998.7 |
| 20260505072427 | 11 | 0 | 0.0 | 0.0 | 0.00 | 0.00 | 0.00 | 78 | 998.7 |
| 20260505071926 | 11 | 0 | 0.0 | 3.2 | 0.00 | 0.00 | 0.00 | 78 | 998.8 |
| 20260505071428 | 11 | 0 | 0.0 | 3.2 | 0.00 | 0.00 | 0.00 | 78 | 998.8 |
| 20260505070926 | 11 | 0 | 1.6 | 4.8 | 0.00 | 0.00 | 0.00 | 77 | 998.8 |
| 20260505070657 | 11 | 0 | 1.6 | 4.8 | 0.00 | 0.00 | 0.00 | 76 | 998.8 |
| 20260505065925 | 11 | 0 | 0.0 | 3.2 | 0.00 | 0.00 | 0.00 | 77 | 998.8 |
| 20260505065426 | 12 | 0 | 1.6 | 3.2 | 0.00 | 0.00 | 0.00 | 77 | 998.9 |
| 20260505064925 | 12 | 229 | 1.6 | 3.2 | 0.00 | 0.00 | 0.00 | 76 | 998.9 |
| 20260505064426 | 12 | 0 | 1.6 | 3.2 | 0.00 | 0.00 | 0.00 | 76 | 998.9 |
| 20260505063926 | 12 | 90 | 1.6 | 3.2 | 0.00 | 0.00 | 0.00 | 75 | 998.8 |
| 20260505063657 | 12 | 94 | 1.6 | 3.2 | 0.00 | 0.00 | 0.00 | 75 | 998.9 |
| 20260505062925 | 12 | 0 | 1.6 | 4.8 | 0.00 | 0.00 | 0.00 | 75 | 998.9 |
| 20260505062422 | 12 | 182 | 1.6 | 6.4 | 0.00 | 0.00 | 0.00 | 75 | 999.0 |
| 20260505061921 | 12 | 201 | 1.6 | 6.4 | 0.00 | 0.00 | 0.00 | 75 | 999.0 |
| 20260505061423 | 12 | 167 | 1.6 | 4.8 | 0.00 | 0.00 | 0.00 | 75 | 999.0 |
| 20260505061152 | 12 | 182 | 0.0 | 4.8 | 0.00 | 0.00 | 0.00 | 75 | 999.1 |
| 20260505060655 | 12 | 0 | 0.0 | 3.2 | 0.00 | 0.00 | 0.00 | 75 | 999.1 |
| 20260505055922 | 12 | 184 | 0.0 | 3.2 | 0.00 | 0.00 | 0.00 | 74 | 999.1 |
| 20260505055656 | 12 | 0 | 0.0 | 3.2 | 0.00 | 0.00 | 0.00 | 73 | 999.1 |
| 20260505054922 | 12 | 0 | 1.6 | 3.2 | 0.00 | 0.00 | 0.00 | 73 | 999.1 |
| 20260505054425 | 12 | 209 | 1.6 | 3.2 | 0.00 | 0.00 | 0.00 | 72 | 999.2 |
| 20260505053923 | 13 | 0 | 1.6 | 4.8 | 0.00 | 0.00 | 0.00 | 72 | 999.2 |
| 20260505053425 | 13 | 170 | 1.6 | 6.4 | 0.00 | 0.00 | 0.00 | 71 | 999.2 |
| 20260505052924 | 13 | 197 | 3.2 | 6.4 | 0.00 | 0.00 | 0.00 | 71 | 999.3 |
| 20260505052421 | 13 | 192 | 3.2 | 6.4 | 0.00 | 0.00 | 0.00 | 70 | 999.3 |
| 20260505051919 | 13 | 227 | 3.2 | 9.7 | 0.00 | 0.00 | 0.00 | 71 | 999.3 |
| 20260505051421 | 13 | 341 | 3.2 | 9.7 | 0.00 | 0.00 | 0.00 | 71 | 999.4 |
| 20260505051151 | 13 | 189 | 3.2 | 8.0 | 0.00 | 0.00 | 0.00 | 71 | 999.5 |
| 20260505050420 | 12 | 211 | 3.2 | 6.4 | 0.00 | 0.00 | 0.00 | 71 | 999.5 |
| 20260505041422 | 12 | 182 | 3.2 | 8.0 | 0.00 | 0.00 | 0.00 | 73 | 999.6 |
| 20260505040919 | 12 | 211 | 3.2 | 6.4 | 0.00 | 0.00 | 0.00 | 73 | 999.6 |
| 20260505040421 | 12 | 187 | 0.0 | 1.6 | 0.00 | 0.00 | 0.00 | 74 | 999.6 |
| 20260505035550 | 12 | 174 | 3.2 | 6.4 | 0.00 | 0.36 | 0.00 | 73 | 999.6 |
| 20260505035049 | 12 | 129 | 3.2 | 6.4 | 0.00 | 0.36 | 0.00 | 73 | 999.6 |
| 20260505034550 | 12 | 178 | 3.2 | 6.4 | 0.00 | 0.36 | 0.00 | 73 | 999.5 |
| 20260505034049 | 12 | 212 | 3.2 | 6.4 | 0.00 | 0.36 | 0.00 | 73 | 999.5 |
| 20260505033550 | 12 | 183 | 3.2 | 6.4 | 0.00 | 0.36 | 0.00 | 73 | 999.5 |
| 20260505033049 | 12 | 188 | 3.2 | 8.0 | 0.00 | 0.36 | 0.00 | 73 | 999.5 |
| 20260505032547 | 12 | 142 | 3.2 | 8.0 | 0.00 | 0.36 | 0.00 | 73 | 999.5 |
| 20260505032046 | 12 | 202 | 3.2 | 6.4 | 0.00 | 0.36 | 0.00 | 73 | 999.5 |
| 20260505031547 | 12 | 165 | 3.2 | 6.4 | 0.00 | 0.36 | 0.00 | 73 | 999.5 |
| 20260505031046 | 12 | 201 | 3.2 | 6.4 | 0.00 | 0.36 | 0.00 | 73 | 999.5 |
| 20260505030547 | 12 | 216 | 3.2 | 8.0 | 0.00 | 0.36 | 0.00 | 73 | 999.5 |
| 20260505030045 | 12 | 178 | 3.2 | 8.0 | 0.00 | 0.36 | 0.00 | 72 | 999.5 |
| 20260505025826 | 12 | 183 | 3.2 | 8.0 | 0.00 | 0.36 | 0.00 | 72 | 999.5 |
| 20260505025547 | 12 | 153 | 3.2 | 6.4 | 0.00 | 0.36 | 0.00 | 72 | 999.5 |
| 20260505024548 | 13 | 232 | 3.2 | 8.0 | 0.00 | 0.36 | 0.00 | 72 | 999.5 |
| 20260505024046 | 13 | 188 | 3.2 | 8.0 | 0.00 | 0.36 | 0.00 | 71 | 999.5 |
| 20260505023817 | 13 | 197 | 3.2 | 6.4 | 0.00 | 0.36 | 0.00 | 71 | 999.5 |
| 20260505023044 | 13 | 296 | 3.2 | 6.4 | 0.00 | 0.36 | 0.00 | 71 | 999.5 |
| 20260505022542 | 13 | 198 | 3.2 | 6.4 | 0.00 | 0.36 | 0.00 | 71 | 999.5 |
| 20260505022041 | 13 | 183 | 3.2 | 8.0 | 0.00 | 0.36 | 0.00 | 70 | 999.5 |
| 20260505021542 | 13 | 131 | 3.2 | 8.0 | 0.00 | 0.36 | 0.00 | 70 | 999.6 |
| 20260505021041 | 13 | 298 | 3.2 | 8.0 | 0.00 | 0.36 | 0.00 | 69 | 999.6 |
| 20260505020541 | 13 | 191 | 3.2 | 8.0 | 0.00 | 0.36 | 0.00 | 69 | 999.5 |
| 20260505020041 | 13 | 167 | 3.2 | 8.0 | 0.00 | 0.36 | 0.00 | 68 | 999.5 |
| 20260505015545 | 13 | 167 | 3.2 | 8.0 | 0.00 | 0.36 | 0.00 | 68 | 999.5 |
| 20260505015041 | 13 | 170 | 3.2 | 11.3 | 0.00 | 0.36 | 0.00 | 67 | 999.5 |
| 20260505014545 | 13 | 190 | 4.8 | 11.3 | 0.00 | 0.36 | 0.00 | 66 | 999.5 |
| 20260505014313 | 13 | 189 | 4.8 | 11.3 | 0.00 | 0.36 | 0.00 | 66 | 999.4 |
| 20260505013542 | 13 | 184 | 4.8 | 8.0 | 0.00 | 0.36 | 0.00 | 65 | 999.4 |
| 20260505013312 | 13 | 186 | 4.8 | 8.0 | 0.00 | 0.36 | 0.00 | 65 | 999.4 |
| 20260505012552 | 13 | 186 | 4.8 | 9.7 | 0.00 | 0.36 | 0.00 | 64 | 999.3 |
| 20260505012040 | 14 | 186 | 4.8 | 9.7 | 0.00 | 0.36 | 0.00 | 64 | 999.1 |
| 20260505011541 | 14 | 162 | 4.8 | 11.3 | 0.00 | 0.36 | 0.00 | 63 | 999.1 |
| 20260505011039 | 14 | 182 | 4.8 | 11.3 | 0.00 | 0.36 | 0.00 | 62 | 999.0 |
| 20260505010549 | 14 | 119 | 4.8 | 9.7 | 0.00 | 0.36 | 0.00 | 62 | 999.0 |
| 20260505010040 | 14 | 188 | 4.8 | 9.7 | 0.00 | 0.36 | 0.00 | 61 | 998.8 |
| 20260505005541 | 14 | 195 | 3.2 | 9.7 | 0.00 | 0.36 | 0.00 | 61 | 998.8 |
| 20260505005039 | 15 | 133 | 4.8 | 9.7 | 0.00 | 0.36 | 0.00 | 60 | 998.7 |
| 20260505004816 | 15 | 172 | 4.8 | 8.0 | 0.00 | 0.36 | 0.00 | 59 | 998.6 |
| 20260505004039 | 15 | 211 | 4.8 | 9.7 | 0.00 | 0.36 | 0.00 | 59 | 998.4 |
| 20260505003544 | 15 | 310 | 4.8 | 9.7 | 0.00 | 0.36 | 0.00 | 59 | 998.4 |
| 20260505003037 | 15 | 305 | 4.8 | 9.7 | 0.00 | 0.36 | 0.00 | 59 | 998.3 |
| 20260505002813 | 15 | 158 | 4.8 | 9.7 | 0.00 | 0.36 | 0.00 | 58 | 998.2 |
| 20260505002035 | 15 | 187 | 4.8 | 9.7 | 0.00 | 0.36 | 0.00 | 57 | 998.0 |
| 20260505001540 | 15 | 187 | 4.8 | 9.7 | 0.00 | 0.36 | 0.00 | 57 | 998.0 |
| 20260505001034 | 15 | 159 | 4.8 | 9.7 | 0.00 | 0.36 | 0.00 | 56 | 998.0 |
| 20260505000540 | 16 | 174 | 6.4 | 11.3 | 0.00 | 0.36 | 0.00 | 55 | 997.9 |
| 20260505000035 | 16 | 200 | 6.4 | 11.3 | 0.00 | 0.36 | 0.00 | 55 | 997.8 |
| 20260504235553 | 16 | 196 | 4.8 | 11.3 | 0.00 | 0.36 | 0.36 | 53 | 997.6 |
| 20260504235544 | 16 | 237 | 6.4 | 11.3 | 0.00 | 0.36 | 0.36 | 55 | 997.8 |
| 20260504234811 | 16 | 178 | 4.8 | 12.9 | 0.00 | 0.36 | 0.36 | 54 | 997.5 |
| 20260504234035 | 16 | 153 | 4.8 | 12.9 | 0.00 | 0.36 | 0.36 | 54 | 997.5 |
| 20260504233536 | 16 | 193 | 4.8 | 12.9 | 0.00 | 0.36 | 0.36 | 53 | 997.4 |
| 20260504233035 | 16 | 201 | 6.4 | 9.7 | 0.00 | 0.36 | 0.36 | 52 | 997.3 |
| 20260504232534 | 17 | 191 | 6.4 | 9.7 | 0.00 | 0.36 | 0.36 | 51 | 997.2 |
| 20260504232033 | 17 | 209 | 4.8 | 9.7 | 0.00 | 0.36 | 0.36 | 51 | 997.1 |
| 20260504231803 | 17 | 194 | 4.8 | 11.3 | 0.00 | 0.36 | 0.36 | 48 | 996.9 |
| 20260504231031 | 17 | 191 | 6.4 | 12.9 | 0.00 | 0.36 | 0.36 | 48 | 997.0 |
| 20260504230532 | 17 | 221 | 6.4 | 12.9 | 0.00 | 0.36 | 0.36 | 48 | 996.8 |
| 20260504225934 | 17 | 203 | 6.4 | 16.1 | 0.00 | 0.36 | 0.36 | 48 | 996.7 |
| 20260504225433 | 18 | 198 | 6.4 | 16.1 | 0.00 | 0.36 | 0.36 | 48 | 996.7 |
| 20260504224933 | 18 | 265 | 6.4 | 16.1 | 0.00 | 0.36 | 0.36 | 48 | 996.7 |
| 20260504224432 | 18 | 197 | 6.4 | 14.5 | 0.00 | 0.36 | 0.36 | 46 | 996.8 |
| 20260504224203 | 18 | 194 | 6.4 | 9.7 | 0.00 | 0.36 | 0.36 | 47 | 996.8 |
| 20260504223430 | 18 | 235 | 4.8 | 9.7 | 0.00 | 0.36 | 0.36 | 46 | 996.7 |
| 20260504222930 | 18 | 166 | 4.8 | 8.0 | 0.00 | 0.36 | 0.36 | 46 | 996.7 |
| 20260504222428 | 18 | 148 | 4.8 | 14.5 | 0.00 | 0.36 | 0.36 | 46 | 996.8 |
| 20260504221926 | 18 | 146 | 4.8 | 14.5 | 0.00 | 0.36 | 0.36 | 45 | 996.7 |
| 20260504221427 | 18 | 182 | 4.8 | 9.7 | 0.00 | 0.36 | 0.36 | 45 | 996.7 |
| 20260504220927 | 18 | 141 | 4.8 | 9.7 | 0.00 | 0.36 | 0.36 | 46 | 996.7 |
| 20260504220427 | 18 | 193 | 4.8 | 9.7 | 0.00 | 0.36 | 0.36 | 45 | 996.8 |
| 20260504215927 | 18 | 191 | 6.4 | 12.9 | 0.00 | 0.36 | 0.36 | 45 | 996.8 |
| 20260504215428 | 18 | 175 | 6.4 | 12.9 | 0.00 | 0.36 | 0.36 | 45 | 996.7 |
| 20260504214928 | 18 | 187 | 6.4 | 12.9 | 0.00 | 0.36 | 0.36 | 44 | 996.7 |
| 20260504214659 | 19 | 248 | 6.4 | 12.9 | 0.00 | 0.36 | 0.36 | 43 | 996.7 |
| 20260504214547 | 19 | 119 | 6.4 | 12.9 | 0.00 | 0.36 | 0.36 | 43 | 996.6 |
| 20260504213428 | 19 | 178 | 6.4 | 12.9 | 0.00 | 0.36 | 0.36 | 42 | 996.6 |
| 20260504212927 | 19 | 203 | 6.4 | 12.9 | 0.00 | 0.36 | 0.36 | 42 | 996.5 |
| 20260504212427 | 20 | 204 | 6.4 | 12.9 | 0.00 | 0.36 | 0.36 | 42 | 996.6 |
| 20260504211926 | 20 | 176 | 6.4 | 11.3 | 0.00 | 0.36 | 0.36 | 42 | 996.6 |
| 20260504211427 | 20 | 138 | 6.4 | 11.3 | 0.00 | 0.36 | 0.36 | 41 | 996.6 |
| 20260504210925 | 20 | 157 | 6.4 | 12.9 | 0.00 | 0.36 | 0.36 | 41 | 996.5 |
| 20260504210427 | 20 | 208 | 6.4 | 12.9 | 0.00 | 0.36 | 0.36 | 40 | 996.5 |
| 20260504205927 | 20 | 149 | 6.4 | 12.9 | 0.00 | 0.36 | 0.36 | 39 | 996.5 |
| 20260504205427 | 20 | 187 | 4.8 | 9.7 | 0.00 | 0.36 | 0.36 | 39 | 996.5 |
| 20260504204926 | 20 | 155 | 4.8 | 9.7 | 0.00 | 0.36 | 0.36 | 39 | 996.4 |
| 20260504204428 | 20 | 229 | 6.4 | 11.3 | 0.00 | 0.36 | 0.36 | 39 | 996.5 |
| 20260504203926 | 20 | 161 | 6.4 | 11.3 | 0.00 | 0.36 | 0.36 | 39 | 996.5 |
| 20260504203657 | 20 | 202 | 6.4 | 11.3 | 0.00 | 0.36 | 0.36 | 39 | 996.5 |
| 20260504202927 | 20 | 184 | 6.4 | 11.3 | 0.00 | 0.36 | 0.36 | 38 | 996.6 |
| 20260504202427 | 20 | 194 | 4.8 | 11.3 | 0.00 | 0.36 | 0.36 | 38 | 996.6 |
| 20260504201926 | 20 | 226 | 4.8 | 11.3 | 0.00 | 0.36 | 0.36 | 37 | 996.6 |
| 20260504201424 | 21 | 180 | 6.4 | 17.7 | 0.00 | 0.36 | 0.36 | 36 | 996.6 |
| 20260504200923 | 21 | 180 | 4.8 | 17.7 | 0.00 | 0.36 | 0.36 | 34 | 996.6 |
| 20260504200426 | 21 | 203 | 4.8 | 11.3 | 0.00 | 0.36 | 0.36 | 34 | 996.6 |
| 20260504195923 | 21 | 276 | 4.8 | 16.1 | 0.00 | 0.36 | 0.36 | 34 | 996.7 |
| 20260504195425 | 21 | 166 | 4.8 | 16.1 | 0.00 | 0.36 | 0.36 | 34 | 996.7 |
| 20260504195155 | 21 | 159 | 6.4 | 12.9 | 0.00 | 0.36 | 0.36 | 34 | 996.8 |
| 20260504194424 | 21 | 266 | 4.8 | 12.9 | 0.00 | 0.36 | 0.36 | 34 | 996.6 |
| 20260504193923 | 21 | 192 | 4.8 | 11.3 | 0.00 | 0.36 | 0.36 | 34 | 996.6 |
| 20260504193423 | 21 | 160 | 6.4 | 11.3 | 0.00 | 0.36 | 0.36 | 33 | 996.7 |
| 20260504192917 | 21 | 217 | 4.8 | 11.3 | 0.00 | 0.36 | 0.36 | 32 | 996.8 |
| 20260504192419 | 21 | 256 | 4.8 | 12.9 | 0.00 | 0.36 | 0.36 | 33 | 996.7 |
| 20260504191917 | 21 | 131 | 6.4 | 17.7 | 0.00 | 0.36 | 0.36 | 35 | 996.8 |
| 20260504191425 | 20 | 219 | 6.4 | 17.7 | 0.00 | 0.36 | 0.36 | 34 | 996.7 |
| 20260504190918 | 20 | 179 | 6.4 | 14.5 | 0.00 | 0.36 | 0.36 | 33 | 996.9 |
| 20260504190649 | 20 | 187 | 6.4 | 14.5 | 0.00 | 0.36 | 0.36 | 35 | 996.9 |
| 20260504185918 | 20 | 157 | 6.4 | 14.5 | 0.00 | 0.36 | 0.36 | 35 | 996.8 |
| 20260504185422 | 20 | 165 | 6.4 | 16.1 | 0.00 | 0.36 | 0.36 | 35 | 997.0 |
| 20260504184918 | 20 | 183 | 6.4 | 16.1 | 0.00 | 0.36 | 0.36 | 33 | 996.7 |
| 20260504184650 | 20 | 182 | 6.4 | 14.5 | 0.00 | 0.36 | 0.36 | 35 | 996.8 |
| 20260504183916 | 20 | 323 | 6.4 | 14.5 | 0.00 | 0.36 | 0.36 | 35 | 997.0 |
| 20260504183419 | 20 | 168 | 4.8 | 14.5 | 0.00 | 0.36 | 0.36 | 34 | 997.0 |
| 20260504182914 | 20 | 115 | 4.8 | 11.3 | 0.00 | 0.36 | 0.36 | 35 | 997.1 |
| 20260504182649 | 20 | 217 | 4.8 | 11.3 | 0.00 | 0.36 | 0.36 | 33 | 997.1 |
| 20260504181913 | 20 | 182 | 4.8 | 11.3 | 0.00 | 0.36 | 0.36 | 36 | 997.3 |
| 20260504181648 | 20 | 194 | 6.4 | 14.5 | 0.00 | 0.36 | 0.36 | 33 | 997.2 |
| 20260504180912 | 20 | 178 | 6.4 | 14.5 | 0.00 | 0.36 | 0.36 | 34 | 997.3 |
| 20260504180418 | 20 | 157 | 4.8 | 11.3 | 0.00 | 0.36 | 0.36 | 33 | 997.3 |
| 20260504175913 | 20 | 238 | 6.4 | 14.5 | 0.00 | 0.36 | 0.36 | 34 | 997.4 |
| 20260504175648 | 20 | 174 | 6.4 | 14.5 | 0.00 | 0.36 | 0.36 | 34 | 997.5 |
| 20260504174914 | 20 | 236 | 6.4 | 16.1 | 0.36 | 0.36 | 0.36 | 34 | 997.5 |
| 20260504174416 | 20 | 192 | 6.4 | 16.1 | 0.36 | 0.36 | 0.36 | 34 | 997.5 |
| 20260504173913 | 20 | 121 | 6.4 | 16.1 | 0.36 | 0.36 | 0.36 | 35 | 997.6 |
| 20260504173418 | 20 | 162 | 4.8 | 14.5 | 0.36 | 0.36 | 0.36 | 35 | 997.8 |
| 20260504173143 | 19 | 308 | 6.4 | 14.5 | 0.36 | 0.36 | 0.36 | 35 | 997.8 |
| 20260504172418 | 19 | 184 | 8.0 | 16.1 | 0.36 | 0.36 | 0.36 | 33 | 997.8 |
| 20260504171912 | 19 | 183 | 8.0 | 22.5 | 0.36 | 0.36 | 0.36 | 33 | 997.8 |
| 20260504171648 | 20 | 234 | 6.4 | 22.5 | 0.36 | 0.36 | 0.36 | 33 | 997.9 |
| 20260504170912 | 20 | 253 | 4.8 | 19.3 | 0.36 | 0.36 | 0.36 | 33 | 998.0 |
| 20260504170415 | 20 | 36 | 4.8 | 12.9 | 0.36 | 0.36 | 0.36 | 33 | 997.9 |
| 20260504170143 | 20 | 253 | 4.8 | 11.3 | 0.36 | 0.36 | 0.36 | 34 | 998.0 |
| 20260504160411 | 18 | 286 | 4.8 | 17.7 | 0.00 | 0.00 | 0.00 | 36 | 998.4 |
| 20260504150904 | 17 | 263 | 6.4 | 16.1 | 0.00 | 0.00 | 0.00 | 37 | 999.3 |
| 20260504150405 | 17 | 162 | 4.8 | 14.5 | 0.00 | 0.00 | 0.00 | 37 | 999.3 |
| 20260504140903 | 16 | 258 | 3.2 | 9.7 | 0.00 | 0.00 | 0.00 | 40 | 999.7 |
| 20260504140405 | 16 | 135 | 3.2 | 11.3 | 0.00 | 0.00 | 0.00 | 42 | 999.8 |
| 20260504130400 | 13 | 189 | 3.2 | 11.3 | 0.00 | 0.00 | 0.00 | 47 | 1000.4 |
| 20260504110340 | 8 | 173 | 1.6 | 4.8 | 0.00 | 0.00 | 0.00 | 61 | 1000.7 |
| 20260504110109 | 8 | 174 | 1.6 | 4.8 | 0.00 | 0.00 | 0.00 | 63 | 1000.7 |
| 20260504100339 | 6 | 185 | 1.6 | 3.2 | 0.00 | 0.00 | 0.00 | 69 | 1000.3 |